Retour au catalogue

CZ-6A DEB

ActifSSO
NORAD 54504·DEBRIS·🇨🇳 China

Lancé Nov 11, 2022 depuis Taiyuan Satellite Launch Center

Loading…

Prochains Passages (prochaines 24 heures)

TLE

FraisSource: Space-Track

Époque: Sep 14, 2026, 11:41 UTC

1 54504U 22151JG  26257.48734066  .00000548  00000-0  30522-3 0  9991
2 54504  98.8394 264.5855 0040579  41.8000 318.6260 14.14651909197782

Suivez CZ-6A DEB en temps réel avec AllMySat

Download on the App Store